Simultaneous Nadir Overpasses (SNOs) Predictions

Prediction of SNOs between METOP-A and TERRA Satellite Orbit:

Table of predicted SNOs for the next 14.0 days since TLE Epoch: 6/8/2012
Index Date (METOP-A) Time (METOP-A) METOP-A Lat,Lon Date (TERRA) Time (TERRA) TERRA Lat,Lon Distance(km) Time Diff (sec)
1 06/09/2012 09:39:00 81.30, 82.14 06/09/2012 09:39:36 81.30, 82.14 0.60 36
2 06/09/2012 10:29:39 -81.31,-109.75 06/09/2012 10:29:02 -81.32,-109.87 2.17 37
3 06/12/2012 05:13:21 81.31, 148.73 06/12/2012 05:14:01 81.31, 148.72 0.27 40
4 06/12/2012 06:04:01 -81.31, -43.50 06/12/2012 06:03:28 -81.31, -43.62 2.10 33
5 06/15/2012 00:47:42 81.30,-145.18 06/15/2012 00:48:33 81.30,-145.13 0.96 51
6 06/15/2012 01:38:22 -81.31, 22.64 06/15/2012 01:38:00 -81.30, 22.58 1.42 22
7 06/17/2012 20:22:03
